METEOR 2-17 DEB, 31398

Orbit data source: Space-Track

METEOR 2-17 DEB, 31398 is space debris in LEO originally from a launch on Sat, 30 Jan 1988 UTC launched from the Plesetsk Missile And Space Complex (PKMTR). Debris objects in space refer to the collection of defunct objects orbiting the Earth. Examples of debris include non-operational satellites, rocket bodies, and fragments generated from explosions, collisions, or faulty payload assembly.

Loading next visibility...
Identifier
31398, 1988-005T
Orbit
LEO
Country
Flag of CISCIS
Related business
Manufacturer
Unknown
Mission
Spacecraft
Bus & Motor
Unknown
Mass
Unknown
Launch date (UTC)
1988-01-30 (38 years ago)
Launch vehicle
Unknown
Launch site
Plesetsk Missile And Space Complex (PKMTR)
Object type
Payload
Rocket body
Debris
Shape & HBR
Unknown shape, 0.1 m
Radar Cross Section
Small (<0.1 m²)

Expand to show TLE details & history
Last TLE update: 1 month ago

TLE from 1 month ago
0 METEOR 2-17 DEB
1 31398U 88005T   25268.34412790  .00003260  00000-0  21358-2 0  9990
2 31398  82.5338 128.5003 0021507 282.7288  77.1478 14.01724488621738
Epoch: 2025-09-25T08:15Z
TLE epoch observation values (Epoch: 2025-09-25T08:15:32.650Z)
Latitude
-0.00003°
Longitude
0.20765°
Altitude
887.311 km
Speed
7.41 km/s
True Right ascension
08h 34m 00s
True Declination
0° 00' 00"
Sunlit
Object was in daylight at epoch
Visualization orbit readout
Latitude
Unknown
Longitude
Unknown
Altitude
Unknown
Speed
Unknown
Apparent Right ascension
Unknown
Apparent Declination
Unknown
Sunlit
N/A
Visualization observer readout
Local Sidereal Time
23:52:36
Azimuth
Unknown
Elevation
Unknown
Doppler factor
Unknown
Orbital elements
Apogee altitude
900.579 km
Perigee altitude
869.337 km
Semi-major axis
7,263.095 km
Eccentricity
0.00215
Inclination
82.5338°
RAAN
128.5003°
Arg. of periapsis
282.7288°
True anomaly
77.38822°
Mean anomaly
77.1478°
Eccentric anomaly
77.268°
Mean motion
3.50639 °/min
Orbital period
102.67 mins
BSTAR
0.0021358
Loading maneuver chart data...
Computing Atmospheric mass density...
Loading historical data...
Loading historical data...
Loading historical data...
Loading historical data...
Loading historical data...
Loading historical data...
Loading historical data...

Documentation

Showing up to 5 results
|